FW4778 Weather Reports


time (UTC)temp
C
wind
direction
speed
KPH
gust
KPH
rain 1hr
cm
rain 24hr
cm
rain mn
cm
humidity
%
barometer
mb
20260507065231 10 5 3.2 9.7 0.00 0.10 0.00 87 1015.5
20260507064230 10 19 6.4 9.7 0.00 0.10 0.00 87 1015.5
20260507063230 10 26 4.8 8.0 0.00 0.10 0.00 87 1015.5
20260507062246 10 36 1.6 6.4 0.00 0.10 0.00 87 1015.5
20260507061226 10 15 3.2 9.7 0.00 0.10 0.00 88 1015.4
20260507060255 10 5 4.8 8.0 0.00 0.10 0.00 89 1015.4
20260507055251 10 33 4.8 6.4 0.00 0.10 0.00 89 1015.3
20260507054228 10 32 4.8 6.4 0.00 0.10 0.00 90 1015.0
20260507053238 10 15 3.2 6.4 0.00 0.10 0.00 91 1015.1
20260507052249 10 12 1.6 4.8 0.00 0.10 0.00 91 1015.0
20260507051239 10 20 0.0 3.2 0.00 0.10 0.00 91 1014.8
20260507050240 9 20 0.0 0.0 0.00 0.10 0.00 91 1014.8
20260507045239 9 20 0.0 0.0 0.00 0.10 0.00 91 1014.7
20260507044238 10 20 0.0 1.6 0.00 0.10 0.00 91 1014.6
20260507043247 10 20 0.0 1.6 0.00 0.10 0.00 91 1014.5
20260507042259 10 20 0.0 1.6 0.00 0.10 0.00 90 1014.4
20260507041239 10 20 0.0 3.2 0.00 0.10 0.00 90 1014.4
20260507040251 10 20 0.0 1.6 0.00 0.10 0.00 90 1014.3
20260507035228 10 20 0.0 1.6 0.00 0.10 0.00 90 1014.2
20260507034258 10 20 0.0 1.6 0.00 0.10 0.00 89 1014.1
20260507033239 10 20 0.0 0.0 0.00 0.10 0.00 89 1014.1
20260507032259 10 20 0.0 0.0 0.00 0.10 0.00 89 1014.1
20260507031244 10 20 0.0 0.0 0.00 0.10 0.00 89 1014.1
20260507030314 10 20 0.0 0.0 0.00 0.10 0.00 88 1014.0
20260507025254 10 20 0.0 1.6 0.00 0.10 0.00 88 1014.0
20260507024235 10 20 0.0 1.6 0.00 0.10 0.00 88 1013.9
20260507023242 10 20 0.0 1.6 0.00 0.10 0.00 87 1013.9
20260507022252 10 20 0.0 0.0 0.00 0.10 0.00 88 1013.9
20260507021236 10 20 0.0 0.0 0.00 0.10 0.00 87 1013.8
20260507020244 10 20 0.0 1.6 0.00 0.10 0.00 87 1013.8
20260507015245 10 20 0.0 1.6 0.00 0.10 0.00 87 1013.7
20260507014244 10 20 0.0 1.6 0.00 0.10 0.00 86 1013.6
20260507013253 10 20 0.0 1.6 0.00 0.10 0.00 85 1013.7
20260507012245 10 20 0.0 1.6 0.00 0.10 0.00 85 1013.7
20260507011229 10 20 0.0 0.0 0.00 0.10 0.00 84 1013.6
20260507010231 10 20 0.0 0.0 0.00 0.10 0.00 83 1013.6
20260507005300 10 20 0.0 1.6 0.00 0.10 0.00 82 1013.5
20260507004240 10 20 0.0 1.6 0.00 0.10 0.00 82 1013.7
20260507003251 10 20 0.0 1.6 0.00 0.10 0.00 81 1013.7
20260507002244 10 20 0.0 0.0 0.00 0.10 0.00 79 1013.5
20260507001228 10 20 0.0 3.2 0.00 0.10 0.00 79 1013.4
20260507000236 10 355 1.6 4.8 0.00 0.10 0.00 79 1013.5
20260506235234 10 360 1.6 3.2 0.00 0.10 0.00 79 1013.3
20260506234234 10 360 0.0 3.2 0.00 0.10 0.00 78 1013.4
20260506233229 10 360 0.0 3.2 0.00 0.10 0.00 78 1013.3
20260506232309 10 360 0.0 3.2 0.00 0.10 0.00 78 1013.2
20260506231230 10 355 1.6 4.8 0.00 0.10 0.00 78 1013.2
20260506230232 11 360 1.6 3.2 0.00 0.10 0.00 77 1013.1
20260506225232 11 20 0.0 1.6 0.00 0.10 0.00 77 1012.9
20260506224302 11 20 1.6 6.4 0.00 0.10 0.00 77 1012.9
20260506223240 11 14 1.6 4.8 0.00 0.10 0.00 77 1012.8
20260506222305 11 340 1.6 4.8 0.00 0.10 0.00 78 1012.9
20260506221302 11 13 3.2 4.8 0.00 0.10 0.00 78 1012.7
20260506220251 11 360 1.6 6.4 0.00 0.10 0.00 77 1012.8
20260506215230 11 26 1.6 4.8 0.00 0.10 0.03 77 1012.7
20260506214232 11 30 1.6 4.8 0.00 0.10 0.03 77 1012.7
20260506213303 11 36 1.6 6.4 0.00 0.10 0.03 77 1012.7
20260506212253 11 32 1.6 6.4 0.00 0.10 0.03 77 1012.7
20260506211246 11 39 3.2 8.0 0.00 0.10 0.03 77 1012.6
20260506210228 11 65 3.2 6.4 0.00 0.10 0.03 77 1012.6
20260506205239 11 18 4.8 9.7 0.00 0.10 0.03 76 1012.5
20260506204249 11 40 4.8 14.5 0.00 0.10 0.03 76 1012.5
20260506203244 11 22 3.2 9.7 0.00 0.10 0.03 76 1012.3
20260506202257 11 84 3.2 12.9 0.00 0.10 0.03 75 1012.3
20260506201242 11 49 3.2 14.5 0.00 0.10 0.03 75 1012.3
20260506200233 11 39 4.8 16.1 0.00 0.10 0.03 75 1012.2
20260506195233 11 42 8.0 19.3 0.00 0.10 0.03 75 1012.2
20260506194301 11 44 6.4 16.1 0.00 0.10 0.03 76 1012.1
20260506193306 11 21 11.3 25.7 0.00 0.10 0.03 76 1012.0
20260506192314 11 40 4.8 14.5 0.00 0.10 0.03 77 1011.9
20260506191243 11 42 6.4 9.7 0.00 0.10 0.03 77 1011.8
20260506190243 11 30 4.8 14.5 0.00 0.10 0.03 76 1011.6
20260506185239 11 36 6.4 17.7 0.00 0.10 0.03 75 1011.4
20260506184250 11 37 4.8 14.5 0.00 0.10 0.03 75 1011.3
20260506183225 11 53 6.4 16.1 0.00 0.10 0.03 74 1011.3
20260506182300 12 19 4.8 20.9 0.00 0.10 0.03 73 1011.1
20260506181243 12 15 4.8 16.1 0.00 0.10 0.03 72 1010.9
20260506180244 12 38 3.2 11.3 0.00 0.10 0.03 71 1010.9
20260506175246 12 79 3.2 11.3 0.00 0.10 0.03 70 1010.7
20260506174256 12 44 3.2 17.7 0.00 0.10 0.03 70 1010.6
20260506173235 13 87 6.4 16.1 0.00 0.10 0.03 68 1010.4
20260506172247 13 360 6.4 16.1 0.00 0.10 0.03 68 1010.3
20260506171240 13 20 6.4 17.7 0.00 0.10 0.03 68 1010.2
20260506170242 13 33 4.8 17.7 0.00 0.10 0.03 68 1010.1
20260506165238 13 27 6.4 20.9 0.00 0.10 0.03 67 1010.0
20260506164238 14 27 12.9 22.5 0.00 0.10 0.03 67 1009.9
20260506163249 15 35 6.4 19.3 0.00 0.10 0.03 66 1009.8
20260506162306 15 19 9.7 19.3 0.00 0.10 0.03 66 1009.7
20260506161250 15 9 6.4 17.7 0.00 0.10 0.03 67 1009.6
20260506160232 15 360 9.7 19.3 0.00 0.10 0.03 65 1009.7
20260506155230 15 360 11.3 17.7 0.00 0.10 0.03 65 1009.6
20260506154231 15 5 9.7 16.1 0.00 0.10 0.03 63 1009.6
20260506153240 15 24 8.0 17.7 0.00 0.10 0.03 63 1009.5
20260506152251 15 355 8.0 17.7 0.00 0.10 0.03 63 1009.6
20260506151234 15 350 8.0 16.1 0.00 0.10 0.03 64 1009.5
20260506150240 15 15 9.7 17.7 0.00 0.10 0.03 66 1009.5
20260506145234 15 350 8.0 17.7 0.00 0.10 0.03 68 1009.6
20260506144235 15 339 9.7 17.7 0.00 0.10 0.03 69 1009.4
20260506143246 15 323 11.3 19.3 0.00 0.10 0.03 67 1009.4
20260506142259 15 355 9.7 20.9 0.00 0.10 0.03 67 1009.5
20260506141241 15 290 11.3 22.5 0.00 0.10 0.03 66 1009.4
20260506140251 15 346 11.3 19.3 0.00 0.10 0.03 67 1009.5
20260506135231 16 342 9.7 19.3 0.00 0.10 0.03 65 1009.6
20260506134227 15 316 9.7 16.1 0.00 0.10 0.03 66 1009.4
20260506133228 15 321 12.9 19.3 0.00 0.10 0.03 64 1009.4
20260506132250 16 348 12.9 20.9 0.00 0.10 0.03 65 1009.3
20260506131233 15 338 9.7 19.3 0.00 0.10 0.03 69 1009.2
20260506130306 13 355 6.4 20.9 0.00 0.10 0.03 70 1009.2
20260506125241 13 328 8.0 19.3 0.00 0.10 0.03 72 1009.2
20260506124240 14 31 9.7 17.7 0.00 0.10 0.03 72 1009.1
20260506123249 15 5 9.7 20.9 0.00 0.10 0.03 72 1009.2
20260506122300 15 355 12.9 20.9 0.00 0.10 0.03 71 1009.1
20260506121254 16 343 6.4 17.7 0.00 0.10 0.03 72 1009.1
20260506120251 15 330 6.4 22.5 0.00 0.10 0.03 73 1009.1
20260506115234 14 29 8.0 14.5 0.00 0.10 0.03 76 1009.1
20260506114250 14 40 4.8 14.5 0.00 0.10 0.03 75 1009.1
20260506113238 15 40 4.8 16.1 0.00 0.10 0.03 78 1009.1
20260506112249 13 5 8.0 17.7 0.00 0.10 0.03 80 1009.1
20260506111300 13 22 6.4 11.3 0.00 0.10 0.03 82 1009.2
20260506110239 13 332 4.8 14.5 0.00 0.10 0.03 81 1009.2
20260506105239 13 355 6.4 16.1 0.00 0.10 0.03 80 1009.1
20260506104249 13 344 6.4 17.7 0.00 0.10 0.03 79 1009.2
20260506103229 14 31 6.4 14.5 0.00 0.10 0.03 82 1009.1
20260506102247 13 306 11.3 20.9 0.00 0.10 0.03 86 1009.1
20260506101227 12 338 8.0 14.5 0.00 0.10 0.03 89 1009.2
20260506100258 12 313 6.4 9.7 0.00 0.10 0.03 91 1009.2
20260506095230 12 355 9.7 14.5 0.00 0.10 0.03 93 1009.2
20260506094245 12 328 6.4 12.9 0.00 0.10 0.03 95 1009.1
20260506093247 11 244 4.8 12.9 0.00 0.10 0.03 95 1009.1
20260506092254 11 300 4.8 9.7 0.00 0.10 0.03 96 1009.1
20260506091246 11 329 6.4 12.9 0.00 0.10 0.03 96 1009.1
20260506090226 11 317 4.8 16.1 0.00 0.10 0.03 97 1009.0
20260506085226 11 328 6.4 12.9 0.00 0.10 0.03 97 1009.1
20260506084228 10 28 6.4 16.1 0.00 0.10 0.03 97 1009.0
20260506083235 10 346 8.0 14.5 0.00 0.10 0.03 97 1009.0
20260506082249 10 12 3.2 8.0 0.10 0.10 0.03 97 1009.0
20260506081232 10 313 4.8 12.9 0.10 0.10 0.03 97 1008.9
20260506080241 10 338 4.8 12.9 0.10 0.10 0.03 97 1008.9
20260506073241 10 305 4.8 14.5 0.10 0.10 0.03 96 1008.8
20260506072252 10 317 6.4 14.5 0.00 0.00 0.00 96 1008.8
20260506071305 9 9 4.8 14.5 0.00 0.00 0.00 96 1008.7
20260506070253 9 351 6.4 14.5 0.00 0.00 0.00 96 1008.8